Location: Bottom School (historical)
(37.9078°N, 89.3593°W)
Time: 18:36:04
(UTC+00:00)

SL-4 R/B - Pass Details

Date: 08 July 2022
Orbit: 425 x 653 km, 51.6° (Epoch: 15 August)

Event Time Altitude Azimuth Distance (km) Brightness Sun altitude
Exits shadow 06:01:11 10° 312° (NW) 1,553 4.8 -29.6°
Maximum altitude 06:02:59 14° 343° (NNW) 1,378 4.8 -29.6°
Drops below altitude 10° 06:04:55 10° 16° (NNE) 1,618 5.3 -29.6°
Sets 06:08:02 0° 43° (NE) 2,548 6.1 -29.6°
